STARLINK-2543, 48278

Orbit data source: Space-Track

STARLINK-2543, 48278 is a payload satellite owned by SpaceX/Seattle (US) in LEO that was launched on Thu, 29 Apr 2021 UTC via an FALCON 9 launch vehicle from the Air Force Eastern Test Range (AFETR). Payload-class satellites include a variety of spacecraft equipped with specific instruments for various scientific and technological missions. These include communications satellites like Starlink; space stations such as the ISS; scientific satellites like the Hubble; Earth observation satellites from companies like Planet Labs, Umbra, and HawkEye 360; GPS; miniature CubeSats for education and research; and military/defense satellites.

Loading next visibility...
Identifier
48278, 2021-036C
Orbit
LEO
Country
Flag of USUS
Related business
Manufacturer
SpaceX/Seattle
Mission
Operational Commercial Communications
Bus & Motor
STARLINK, Unknown motor
Mass
260 kg wet, ~248 kg dry
Launch date (UTC)
2021-04-29 (4 years ago)
Launch vehicle
FALCON 9
Launch site
Air Force Eastern Test Range (AFETR)
Object type
Payload
Rocket body
Debris
Shape & HBR
Box + 1 Pan, 10.1 m
Radar Cross Section
13.562 m², Large (>1 m²)

Expand to show TLE details & history
Last TLE update: 7 hours ago

TLE from 7 hours ago
0 STARLINK-2543
1 48278U 21036C   25291.26552259 -.00002432  00000-0 -14439-3 0  9993
2 48278  53.0548 306.0730 0001282  90.7021 269.4115 15.06404677247615
Epoch: 2025-10-18T06:22Z
TLE epoch observation values (Epoch: 2025-10-18T06:22:21.151Z)
Latitude
-0.00003°
Longitude
-176.51417°
Altitude
548.086 km
Speed
7.589 km/s
True Right ascension
20h 24m 17s
True Declination
0° 00' 00"
Sunlit
Object was in daylight at epoch
Visualization orbit readout
Latitude
Unknown
Longitude
Unknown
Altitude
Unknown
Speed
Unknown
Apparent Right ascension
Unknown
Apparent Declination
Unknown
Sunlit
N/A
Visualization observer readout
Local Sidereal Time
07:43:33
Azimuth
Unknown
Elevation
Unknown
Doppler factor
Unknown
Orbital elements
Apogee altitude
548.356 km
Perigee altitude
546.58 km
Semi-major axis
6,925.605 km
Eccentricity
0.00013
Inclination
53.0548°
RAAN
306.073°
Arg. of periapsis
90.7021°
True anomaly
269.39681°
Mean anomaly
269.4115°
Eccentric anomaly
269.40416°
Mean motion
3.76579 °/min
Orbital period
95.6 mins
BSTAR
-0.00014439
Loading maneuver chart data...
Computing Atmospheric mass density...
Loading historical data...
Loading historical data...
Loading historical data...
Loading historical data...
Loading historical data...
Loading historical data...
Loading historical data...

Documentation

Showing up to 5 results
|